Location: Владивосток
(43.1151°N, 131.8856°E)
Time: 11:15:37
(UTC+10:00)

NOAA 19 - Pass Details

Date: 27 June 2022
Orbit: 840 x 861 km, 99.1° (Epoch: 17 August)

Event Time Altitude Azimuth Distance (km) Brightness Sun altitude
Rises 21:33:02 0° 202° (SSW) 3,420 8.2 -6.2°
Reaches altitude 10° 21:35:56 10° 217° (SW) 2,487 7.6 -6.6°
Maximum altitude 21:40:08 22° 267° (W) 1,789 7.5 -7.2°
Drops below altitude 10° 21:44:20 10° 317° (NW) 2,491 9.4 -7.7°
Sets 21:47:17 0° 332° (NNW) 3,429 10.0 -8.1°
